Location: Brunsbüttel
(52.3892°N, 10.6138°E)
Time: 10:10:18
(UTC+00:00)

Cosmos 1833 Rocket - Pass Details

Date: 19 May 2025
Orbit: 832 x 838 km, 71.0° (Epoch: 24 June)

Event Time Altitude Azimuth Distance (km) Brightness Sun altitude
Rises 20:22:54 0° 198° (SSW) 3,378 5.5 -8.7°
Reaches altitude 10° 20:25:20 10° 195° (SSW) 2,448 4.8 -8.9°
Maximum altitude 20:30:53 65° 115° (ESE) 924 2.7 -9.4°
Drops below altitude 10° 20:36:29 10° 35° (NE) 2,464 5.4 -10.0°
Sets 20:38:57 0° 33° (NNE) 3,402 6.1 -10.2°
